Kuiper-00065

operational
NORAD ID: 64525 Int'l Des: 2025-134 Owner: KUIP Country: US Constellation: kuiper
LEOCIRCULAR

About Kuiper-00065

Description loading...

Live Position

Loading 3D Globe...

Upcoming Passes

Altitude History

Altitude vs Time

uPlot chart will show altitude changes over time

Two-Line Element Set

1 64525U 25134AB 25278.32798743 .00007223 00000-0 97414-3 0 9996
2 64525 51.9010 207.2074 0011801 128.4015 231.8009 14.79958024 16957
Epoch: Oct 5, 2025 • Age: 24 hours

Current Status

Altitude 633.7 km
Velocity 7.54 km/s
Sub-Earth Point 8.54°N, 70.74°E
Launch Date Jun 23, 2025
Age 0.2 years
Type internet

Technical Details

Classification Payload
Mass 490.00 kg
Dry Mass 490.00 kg
Total Mass 490.00 kg
Length 1.80 m
Diameter 0.70 m
Span 5.00 m
Shape Box + 2 pan
Manufacturer KUIP
Bus Type Kuiper
Phase Status In Orbit
Owner/State KUIP/US

Large Constellations

Loading constellations...